Regional Weather Roundup
Issued by NWS

Home | Current Version | Previous Version | Graphics & Text | Print | Product List | Glossary On
Versions: 1 2 3 4 5 6 7 8 9 10 11 12 13 14 15 16 17 18 19 20 21 22 23 24 25 26
000
ASUS45 KPSR 230910
RWRAZ

ARIZONA HOURLY REGIONAL WEATHER ROUNDUP
NATIONAL WEATHER SERVICE PHOENIX AZ
200 AM MST SUN JUL 23 2017

NOTE: FAIR INDICATES FEW OR NO CLOUDS BELOW 12,000 FEET WITH NO
SIGNIFICANT WEATHER AND/OR OBSTRUCTIONS TO VISIBILITY.

AZZ001>003-036-231000-
NORTHWEST ARIZONA

CITY           SKY/WX    TMP DP  RH WIND       PRES   REMARKS
KINGMAN        PTCLDY    76  59  55 E7        29.98S
$$

AZZ004>008-015-016-018-231000-
NORTH CENTRAL ARIZONA

CITY           SKY/WX    TMP DP  RH WIND       PRES   REMARKS
GRAND CANYON   CLOUDY    67  51  56 CALM      30.23F
WILLIAMS       MOCLDY    63  57  82 SE7       30.24F
PRESCOTT       MOCLDY    67  61  81 S8        30.11F
FLAGSTAFF      CLOUDY    61  56  83 CALM      30.27F
PAYSON         MOCLDY    68  63  83 NE5       30.16S
PAGE           CLEAR     81  52  36 S5        30.05F
$$

AZZ009>014-017-231000-
NORTHEAST ARIZONA

CITY           SKY/WX    TMP DP  RH WIND       PRES   REMARKS
WINSLOW        MOCLDY    70  61  73 SW13      30.11F
SAINT JOHNS    PTCLDY    64  60  87 NE5       30.16S
WINDOW ROCK    MOCLDY    61  53  75 SW5       30.26S
SHOW LOW       MOCLDY    59  57  94 CALM      30.21F
$$

AZZ540-542>544-546-548-231000-
GREATER PHOENIX AREA

CITY           SKY/WX    TMP DP  RH WIND       PRES   REMARKS
PHOENIX        MOCLDY    87  68  52 E9        29.81F
BUCKEYE        PTCLDY    84  75  74 CALM      29.82S
LUKE AFB       PTCLDY    86  71  60 CALM      29.81F
DEER VALLEY    MOCLDY    85  69  58 SE7       29.83F
SCOTTSDALE     MOCLDY    85  68  56 SE3       29.86F
MESA-GATEWAY   CLOUDY    84  68  58 SE7       29.87S
$$

AZZ539-553-231000-
SOUTHWEST MARICOPA COUNTY AND PINAL COUNTY

CITY           SKY/WX    TMP DP  RH WIND       PRES   REMARKS
CASA GRANDE    CLOUDY    84  68  58 E7        29.87S
GILA BEND      FAIR      89  63  41 CALM      29.79F
$$

AZZ503-504-507>509-231000-
SOUTHEAST ARIZONA

CITY           SKY/WX    TMP DP  RH WIND       PRES   REMARKS
TUCSON         CLOUDY    75  70  84 SE12      29.98S
DAVIS-MONTHAN  CLOUDY    74  74 100 S7        29.97S
NOGALES        CLOUDY    69  68  96 CALM      30.06S
SIERRA VISTA   LGT RAIN  67  65  93 S5        30.11S
DOUGLAS        CLOUDY    68  67  96 CALM      30.08S
SAFFORD        CLOUDY    74  69  85 CALM      29.98S
$$

AZZ532-231000-
SOUTHWEST ARIZONA

CITY           SKY/WX    TMP DP  RH WIND       PRES   REMARKS
YUMA           PTCLDY    88  70  55 SE12      29.74F
$$

CAZ041-043-047-048-061-525>527-560>570-231000-
SOUTHERN CALIFORNIA

CITY           SKY/WX    TMP DP  RH WIND       PRES   REMARKS
DOWNTOWN L.A.  CLEAR     69  62  78 CALM      29.87F
L.A. AIRPORT   PTCLDY    68  64  87 W6        29.88F
SAN DIEGO      PTCLDY    69  63  81 W6        29.89F
BURBANK        CLEAR     70  61  73 SE7       29.88F
ONTARIO        PTCLDY    70  64  81 SW3       29.89F
RIVERSIDE      CLEAR     70  64  81 W5        29.89F
PALM SPRINGS   CLEAR     92  59  33 N6        29.78F
EL CENTRO NAS  CLEAR     86  65  49 E6        29.72F
IMPERIAL       CLEAR     87  71  58 E7        29.70F
BLYTHE         MOCLDY    94  61  33 S12       29.75S
NEEDLES        MOCLDY    99  59  26 SW8       29.74F
$$

NVZ020-UTZ003-231000-
SOUTHERN NEVADA-UTAH

CITY           SKY/WX    TMP DP  RH WIND       PRES   REMARKS
LAS VEGAS      PTCLDY    94  56  27 S7        29.84F
SALT LAKE CITY PTCLDY    77  49  37 SW3       30.05F
$$

NMZ009-TXZ055-231000-
NEW MEXICO-WEST TEXAS

CITY           SKY/WX    TMP DP  RH WIND       PRES   REMARKS
ALBUQUERQUE    MOCLDY    69  56  62 E6        30.19F
EL PASO        MOCLDY    72  68  87 CALM      30.05F
$$


........................KEY........................
SKY/WX - SKY CONDITION/WEATHER
TMP    - TEMPERATURE IN FAHRENHEIT
DP     - DEW POINT IN FAHRENHEIT
RH     - RELATIVE HUMIDITY IN PERCENT
WIND   - DIRECTION AND SPEED IN MILES PER HOUR (MPH)
VRB    - VARIABLE WIND DIRECTION
PRES   - MEAN SEA LEVEL PRESSURE IN INCHES OF MERCURY
         F - FALLING PRESSURE   R - RISING PRESSURE
         S - STEADY PRESSURE
VSB    - VISIBILITY IN MILES
HX     - HEAT INDEX IN FAHRENHEIT
WCI    - WIND CHILL INDEX IN FAHRENHEIT
TC     - TEMPERATURE IN CELSIUS WHICH IS ALSO KNOWN AS
         TEMPERATURE IN CENTIGRADE
AFB    - AIR FORCE BASE
         LUKE AFB IS LUKE AIR FORCE BASE
         DAVIS-MONTHAN IS DAVIS-MONTHAN AIR FORCE BASE
NAS    - NAVAL AIR STATION
         EL CENTRO NAS IS EL CENTRO NAVAL AIR STATION
N/A    - NOT AVAILABLE





USA.gov is the U.S. government's official web portal to all federal, state and local government web resources and services.